Showing default

HULIANWANG DIGUI-143, 67441

Orbit data source: Space-Track

HULIANWANG DIGUI-143, 67441 is a payload satellite owned by Zhongguo Xingwang (CN) in LEO that was launched on Tue, 13 Jan 2026 UTC via a CHANG ZHENG 8A launch vehicle from the Wenchang Satellite Launch Center (WSC). Payload-class satellites include a variety of spacecraft equipped with specific instruments for various scientific and technological missions. These include communications satellites like Starlink; space stations such as the ISS; scientific satellites like the Hubble; Earth observation satellites from companies like Planet Labs, Umbra, and HawkEye 360; GPS; miniature CubeSats for education and research; and military/defense satellites.

Loading next visibility...
Identifier
67441, 2026-007G
Orbit
LEO
Country
Flag of CNCN / PRC
Related business
Manufacturer
CAST
Mission
Operational Civil Communications
Bus & Motor
XINGWANG C, Unknown motor
Mass
~700 kg wet, ~700 kg dry
Launch date (UTC)
2026-01-13 (5 months ago)
Launch vehicle
CHANG ZHENG 8A
Launch site
Wenchang Satellite Launch Center (WSC)
Object type
Payload
Rocket body
Debris
Shape & HBR
Box + 2 Pan, 2.4 m
Radar Cross Section
5.935 m², Large (>1 m²)

Expand to show TLE details & history
Last TLE update: 10 hours ago

TLE from 10 hours ago
0 HULIANWANG DIGUI-143
1 67441U 26007G   26171.43871711 -.00000097  00000-0  57300-4 0  9992
2 67441  50.0111  74.0013 0000749  19.8953 340.1948 13.29323834 21226
Epoch: 2026-06-20T10:31Z
TLE epoch observation values (Epoch: 2026-06-20T10:31:45.158Z)
Latitude
-0.00004°
Longitude
7.40978°
Altitude
1,149.291 km
Speed
7.28 km/s
True Right ascension
04h 56m 00s
True Declination
0° 00' 00"
Sunlit
Object was in daylight at epoch
Visualization orbit readout
Latitude
Unknown
Longitude
Unknown
Altitude
Unknown
Speed
Unknown
Apparent Right ascension
Unknown
Apparent Declination
Unknown
Sunlit
N/A
Visualization observer readout
Local Sidereal Time
07:18:34
Azimuth
Unknown
Elevation
Unknown
Doppler factor
Unknown
Orbital elements
Apogee altitude
1,150.582 km
Perigee altitude
1,149.455 km
Semi-major axis
7,528.155 km
Eccentricity
0.00007
Inclination
50.0111°
RAAN
74.0013°
Arg. of periapsis
19.8953°
True anomaly
340.19189°
Mean anomaly
340.1948°
Eccentric anomaly
340.19335°
Mean motion
3.32285 °/min
Orbital period
108.34 mins
BSTAR
0.0000573
Loading maneuver chart data...
Computing Atmospheric mass density...
Loading historical data...
Loading historical data...
Loading historical data...
Loading historical data...
Loading historical data...
Loading historical data...
Loading historical data...

Documentation

Showing up to 5 results
|